Time,TemperatureF,DewpointF,PressureIn,WindDirection,WindDirectionDegrees,WindSpeedMPH,WindSpeedGustMPH,Humidity,HourlyPrecipIn,Conditions,Clouds,dailyrainin,SoftwareType,DateUTC
2013-04-15 00:00:00,55.9,40.9,28.83,North,0,5.8,5.8,57,0.00,CLR,SKC,0.00,WeatherDisplay:10.37,2013-04-15 04:00:00,
2013-04-15 00:01:00,55.9,40.9,28.83,North,0,5.8,5.8,57,0.00,CLR,SKC,0.00,WeatherDisplay:10.37,2013-04-15 04:01:00,
2013-04-15 00:02:00,55.9,40.9,28.83,North,0,5.8,5.8,57,0.00,CLR,SKC,0.00,WeatherDisplay:10.37,2013-04-15 04:02:00,
2013-04-15 00:08:00,55.9,40.9,28.83,North,0,5.8,5.8,57,0.00,CLR,SKC,0.00,WeatherDisplay:10.37,2013-04-15 04:08:00,
2013-04-15 00:12:00,56.1,41.1,28.83,North,0,5.8,5.8,57,0.00,CLR,SKC,0.00,WeatherDisplay:10.37,2013-04-15 04:12:00,
2013-04-15 00:17:00,56.3,41.3,28.83,North,0,6.9,6.9,57,0.00,CLR,SKC,0.00,WeatherDisplay:10.37,2013-04-15 04:17:00,
2013-04-15 00:22:00,56.3,41.3,28.83,NE,45,3.5,3.5,57,0.00,CLR,SKC,0.00,WeatherDisplay:10.37,2013-04-15 04:22:00,
2013-04-15 00:27:00,56.5,41.4,28.82,North,0,3.5,3.5,57,0.00,CLR,SKC,0.00,WeatherDisplay:10.37,2013-04-15 04:27:00,
2013-04-15 00:32:00,56.7,41.6,28.82,North,0,3.5,3.5,57,0.00,CLR,SKC,0.00,WeatherDisplay:10.37,2013-04-15 04:32:00,
2013-04-15 00:37:00,56.7,41.6,28.82,East,90,3.5,3.5,57,0.00,CLR,SKC,0.00,WeatherDisplay:10.37,2013-04-15 04:37:00,
2013-04-15 00:42:00,56.8,41.3,28.82,North,0,3.5,3.5,56,0.00,CLR,SKC,0.00,WeatherDisplay:10.37,2013-04-15 04:42:00,
2013-04-15 00:47:00,57.0,41.5,28.82,NE,45,3.5,3.5,56,0.00,CLR,SKC,0.00,WeatherDisplay:10.37,2013-04-15 04:47:00,
2013-04-15 00:52:00,57.0,41.5,28.82,NE,45,3.8,3.8,56,0.00,CLR,SKC,0.00,WeatherDisplay:10.37,2013-04-15 04:52:00,
2013-04-15 00:57:00,57.2,41.6,28.82,NE,45,3.5,3.5,56,0.00,CLR,SKC,0.00,WeatherDisplay:10.37,2013-04-15 04:57:00,
2013-04-15 01:03:00,57.4,41.8,28.82,North,0,3.5,3.5,56,0.00,CLR,SKC,0.00,WeatherDisplay:10.37,2013-04-15 05:03:00,
2013-04-15 01:07:00,57.4,41.8,28.82,North,0,3.5,3.5,56,0.00,CLR,SKC,0.00,WeatherDisplay:10.37,2013-04-15 05:07:00,
2013-04-15 01:12:00,57.7,41.7,28.81,NE,45,3.5,3.5,55,0.00,CLR,SKC,0.00,WeatherDisplay:10.37,2013-04-15 05:12:00,
2013-04-15 01:17:00,57.7,41.7,28.81,NE,45,3.5,3.5,55,0.00,CLR,SKC,0.00,WeatherDisplay:10.37,2013-04-15 05:17:00,
2013-04-15 01:22:00,57.7,41.7,28.81,NE,45,3.5,3.5,55,0.00,CLR,SKC,0.00,WeatherDisplay:10.37,2013-04-15 05:22:00,
2013-04-15 01:27:00,57.7,42.1,28.81,NE,45,3.5,3.5,56,0.00,CLR,SKC,0.00,WeatherDisplay:10.37,2013-04-15 05:27:00,
2013-04-15 01:32:00,57.7,42.1,28.81,NE,45,3.5,3.5,56,0.00,CLR,SKC,0.00,WeatherDisplay:10.37,2013-04-15 05:32:00,
2013-04-15 01:37:00,58.1,42.5,28.81,East,90,5.8,5.8,56,0.00,CLR,SKC,0.00,WeatherDisplay:10.37,2013-04-15 05:37:00,
2013-04-15 01:42:00,58.3,42.6,28.81,NE,45,3.5,3.5,56,0.00,CLR,SKC,0.00,WeatherDisplay:10.37,2013-04-15 05:42:00,
2013-04-15 01:47:00,58.5,43.3,28.81,NE,45,3.5,3.5,57,0.00,CLR,SKC,0.00,WeatherDisplay:10.37,2013-04-15 05:47:00,
2013-04-15 01:52:00,58.6,43.4,28.81,East,90,4.6,4.6,57,0.00,CLR,SKC,0.00,WeatherDisplay:10.37,2013-04-15 05:52:00,
2013-04-15 01:57:00,58.8,43.6,28.81,NE,45,5.8,5.8,57,0.00,CLR,SKC,0.00,WeatherDisplay:10.37,2013-04-15 05:57:00,
2013-04-15 02:02:00,58.8,43.6,28.81,NE,45,6.9,6.9,57,0.00,CLR,SKC,0.00,WeatherDisplay:10.37,2013-04-15 06:02:00,
2013-04-15 02:07:00,59.2,43.9,28.81,NE,45,10.4,10.4,57,0.00,CLR,SKC,0.00,WeatherDisplay:10.37,2013-04-15 06:07:00,
2013-04-15 02:12:00,59.2,43.9,28.81,NE,45,6.9,6.9,57,0.00,CLR,SKC,0.00,WeatherDisplay:10.37,2013-04-15 06:12:00,
2013-04-15 02:17:00,59.4,44.1,28.81,NE,45,4.6,4.6,57,0.00,CLR,SKC,0.00,WeatherDisplay:10.37,2013-04-15 06:17:00,
2013-04-15 02:22:00,59.4,44.1,28.80,NE,45,4.6,4.6,57,0.00,CLR,SKC,0.00,WeatherDisplay:10.37,2013-04-15 06:22:00,
2013-04-15 02:27:00,59.2,44.4,28.80,NE,45,4.6,4.6,58,0.00,CLR,SKC,0.00,WeatherDisplay:10.37,2013-04-15 06:27:00,
2013-04-15 02:32:00,59.2,44.4,28.80,NE,45,2.3,2.3,58,0.00,CLR,SKC,0.00,WeatherDisplay:10.37,2013-04-15 06:32:00,
2013-04-15 02:38:00,59.0,44.2,28.80,NNE,22,3.5,3.5,58,0.00,CLR,SKC,0.00,WeatherDisplay:10.37,2013-04-15 06:38:00,
2013-04-15 02:43:00,58.8,44.5,28.80,NE,45,3.5,3.5,59,0.00,CLR,SKC,0.00,WeatherDisplay:10.37,2013-04-15 06:43:00,
2013-04-15 02:48:00,58.8,44.5,28.80,NE,45,3.5,3.5,59,0.00,CLR,SKC,0.00,WeatherDisplay:10.37,2013-04-15 06:48:00,
2013-04-15 02:53:00,59.0,44.7,28.80,East,90,3.5,3.5,59,0.00,CLR,SKC,0.00,WeatherDisplay:10.37,2013-04-15 06:53:00,
2013-04-15 02:58:00,59.0,44.7,28.80,NE,45,3.5,3.5,59,0.00,CLR,SKC,0.00,WeatherDisplay:10.37,2013-04-15 06:58:00,
2013-04-15 03:03:00,59.0,44.7,28.80,NE,45,5.8,5.8,59,0.00,CLR,SKC,0.00,WeatherDisplay:10.37,2013-04-15 07:03:00,
2013-04-15 03:41:00,59.0,45.1,28.80,East,90,4.6,4.6,60,0.00,CLR,SKC,0.00,WeatherDisplay:10.37,2013-04-15 07:41:00,
2013-04-15 03:42:00,59.0,45.1,28.80,NE,45,4.6,4.6,60,0.00,CLR,SKC,0.00,WeatherDisplay:10.37,2013-04-15 07:42:00,
2013-04-15 03:47:00,59.0,45.1,28.80,East,90,8.1,8.1,60,0.00,CLR,SKC,0.00,WeatherDisplay:10.37,2013-04-15 07:47:00,
2013-04-15 03:48:00,59.2,45.3,28.80,NE,45,8.1,8.1,60,0.00,CLR,SKC,0.00,WeatherDisplay:10.37,2013-04-15 07:48:00,
2013-04-15 03:49:00,59.2,45.3,28.80,NE,45,5.8,5.8,60,0.00,CLR,SKC,0.00,WeatherDisplay:10.37,2013-04-15 07:49:00,
2013-04-15 03:52:00,59.2,45.3,28.80,NE,45,3.5,3.5,60,0.00,CLR,SKC,0.00,WeatherDisplay:10.37,2013-04-15 07:52:00,
2013-04-15 03:54:00,59.2,45.3,28.80,NE,45,3.5,3.5,60,0.00,CLR,SKC,0.00,WeatherDisplay:10.37,2013-04-15 07:54:00,
2013-04-15 03:59:00,59.0,45.1,28.80,NE,45,3.5,3.5,60,0.00,CLR,SKC,0.00,WeatherDisplay:10.37,2013-04-15 07:59:00,
2013-04-15 04:04:00,59.0,45.1,28.80,NE,45,2.3,2.3,60,0.00,CLR,SKC,0.00,WeatherDisplay:10.37,2013-04-15 08:04:00,
2013-04-15 04:09:00,59.0,45.1,28.80,NE,45,2.3,2.3,60,0.00,CLR,SKC,0.00,WeatherDisplay:10.37,2013-04-15 08:09:00,
2013-04-15 04:14:00,59.0,45.1,28.81,South,180,2.3,2.3,60,0.00,CLR,SKC,0.00,WeatherDisplay:10.37,2013-04-15 08:14:00,
2013-04-15 04:19:00,59.0,45.1,28.82,East,90,3.5,3.5,60,0.00,CLR,SKC,0.00,WeatherDisplay:10.37,2013-04-15 08:19:00,
2013-04-15 04:24:00,59.2,45.3,28.82,East,90,5.8,5.8,60,0.00,CLR,SKC,0.00,WeatherDisplay:10.37,2013-04-15 08:24:00,
2013-04-15 04:29:00,59.2,45.7,28.82,East,90,4.6,4.6,61,0.00,CLR,SKC,0.00,WeatherDisplay:10.37,2013-04-15 08:29:00,
2013-04-15 04:34:00,59.4,45.5,28.82,East,90,5.8,5.8,60,0.00,CLR,SKC,0.00,WeatherDisplay:10.37,2013-04-15 08:34:00,
2013-04-15 04:36:00,59.4,45.5,28.82,NE,45,8.1,8.1,60,0.00,CLR,SKC,0.00,WeatherDisplay:10.37,2013-04-15 08:36:00,
2013-04-15 04:40:00,59.5,45.6,28.82,NE,45,8.1,8.1,60,0.00,CLR,SKC,0.00,WeatherDisplay:10.37,2013-04-15 08:40:00,
2013-04-15 04:41:00,59.5,45.6,28.82,East,90,8.1,8.1,60,0.00,CLR,SKC,0.00,WeatherDisplay:10.37,2013-04-15 08:41:00,
2013-04-15 04:42:00,59.5,45.6,28.82,East,90,8.1,8.1,60,0.00,CLR,SKC,0.00,WeatherDisplay:10.37,2013-04-15 08:42:00,
2013-04-15 04:47:00,59.5,45.6,28.82,NE,45,5.8,5.8,60,0.00,CLR,SKC,0.00,WeatherDisplay:10.37,2013-04-15 08:47:00,
2013-04-15 04:52:00,59.5,45.6,28.82,East,90,4.6,4.6,60,0.00,CLR,SKC,0.00,WeatherDisplay:10.37,2013-04-15 08:52:00,
2013-04-15 04:57:00,59.5,45.6,28.82,East,90,10.4,10.4,60,0.00,CLR,SKC,0.00,WeatherDisplay:10.37,2013-04-15 08:57:00,
2013-04-15 05:03:00,59.9,45.5,28.83,NE,45,6.9,6.9,59,0.00,CLR,SKC,0.00,WeatherDisplay:10.37,2013-04-15 09:03:00,
2013-04-15 05:08:00,60.1,45.7,28.83,East,90,8.1,8.1,59,0.00,CLR,SKC,0.00,WeatherDisplay:10.37,2013-04-15 09:08:00,
2013-04-15 05:13:00,60.1,45.2,28.83,NE,45,11.5,11.5,58,0.00,CLR,SKC,0.00,WeatherDisplay:10.37,2013-04-15 09:13:00,
2013-04-15 05:18:00,60.3,45.4,28.83,East,90,5.8,5.8,58,0.00,CLR,SKC,0.00,WeatherDisplay:10.37,2013-04-15 09:18:00,
2013-04-15 05:23:00,60.3,45.4,28.84,East,90,5.8,5.8,58,0.00,CLR,SKC,0.00,WeatherDisplay:10.37,2013-04-15 09:23:00,
2013-04-15 05:28:00,60.1,45.7,28.84,ENE,68,5.8,5.8,59,0.00,CLR,SKC,0.00,WeatherDisplay:10.37,2013-04-15 09:28:00,
2013-04-15 05:33:00,60.1,45.2,28.84,East,90,5.8,5.8,58,0.00,CLR,SKC,0.00,WeatherDisplay:10.37,2013-04-15 09:33:00,
2013-04-15 05:38:00,60.1,45.7,28.85,East,90,5.8,5.8,59,0.00,CLR,SKC,0.00,WeatherDisplay:10.37,2013-04-15 09:38:00,
2013-04-15 05:43:00,59.9,45.5,28.85,East,90,5.8,5.8,59,0.00,CLR,SKC,0.00,WeatherDisplay:10.37,2013-04-15 09:43:00,
2013-04-15 05:48:00,59.9,45.5,28.85,East,90,5.8,5.8,59,0.00,CLR,SKC,0.00,WeatherDisplay:10.37,2013-04-15 09:48:00,
2013-04-15 05:53:00,59.9,45.5,28.86,East,90,5.8,5.8,59,0.00,CLR,SKC,0.00,WeatherDisplay:10.37,2013-04-15 09:53:00,
2013-04-15 05:58:00,59.7,45.8,28.86,East,90,3.5,3.5,60,0.00,CLR,SKC,0.00,WeatherDisplay:10.37,2013-04-15 09:58:00,
2013-04-15 06:03:00,59.5,45.6,28.86,East,90,3.5,3.5,60,0.00,CLR,SKC,0.00,WeatherDisplay:10.37,2013-04-15 10:03:00,
2013-04-15 06:08:00,59.5,45.6,28.86,SE,135,9.2,9.2,60,0.00,CLR,SKC,0.00,WeatherDisplay:10.37,2013-04-15 10:08:00,
2013-04-15 06:13:00,59.5,45.6,28.86,East,90,8.1,0.0,60,0.00,CLR,SKC,0.00,WeatherDisplay:10.37,2013-04-15 10:13:00,
2013-04-15 06:18:00,59.5,45.6,28.86,ENE,68,5.8,5.8,60,0.00,CLR,SKC,0.00,WeatherDisplay:10.37,2013-04-15 10:18:00,
2013-04-15 06:23:00,59.4,45.5,28.86,NE,45,5.8,5.8,60,0.00,CLR,SKC,0.00,WeatherDisplay:10.37,2013-04-15 10:23:00,
2013-04-15 06:28:00,59.4,45.9,28.87,NE,45,4.6,4.6,61,0.00,CLR,SKC,0.00,WeatherDisplay:10.37,2013-04-15 10:28:00,
2013-04-15 06:33:00,59.2,45.7,28.87,East,90,6.9,6.9,61,0.00,CLR,SKC,0.00,WeatherDisplay:10.37,2013-04-15 10:33:00,
2013-04-15 06:38:00,59.2,45.7,28.87,NE,45,6.9,6.9,61,0.00,CLR,SKC,0.00,WeatherDisplay:10.37,2013-04-15 10:38:00,
2013-04-15 06:43:00,59.0,45.6,28.87,East,90,5.8,5.8,61,0.00,CLR,SKC,0.00,WeatherDisplay:10.37,2013-04-15 10:43:00,
2013-04-15 06:48:00,59.0,46.0,28.87,East,90,5.8,5.8,62,0.00,CLR,SKC,0.00,WeatherDisplay:10.37,2013-04-15 10:48:00,
2013-04-15 06:53:00,59.2,45.7,28.88,East,90,8.1,8.1,61,0.00,CLR,SKC,0.00,WeatherDisplay:10.37,2013-04-15 10:53:00,
2013-04-15 06:58:00,59.2,45.7,28.88,East,90,3.8,3.8,61,0.00,CLR,SKC,0.00,WeatherDisplay:10.37,2013-04-15 10:58:00,
2013-04-15 07:03:00,59.0,46.0,28.88,East,90,5.8,5.8,62,0.00,CLR,SKC,0.00,WeatherDisplay:10.37,2013-04-15 11:03:00,
2013-04-15 07:08:00,59.0,46.0,28.89,East,90,5.8,5.8,62,0.00,CLR,SKC,0.00,WeatherDisplay:10.37,2013-04-15 11:08:00,
2013-04-15 07:14:00,59.0,46.4,28.89,East,90,5.8,5.8,63,0.00,CLR,SKC,0.00,WeatherDisplay:10.37,2013-04-15 11:14:00,
2013-04-15 07:19:00,58.8,46.2,28.89,East,90,4.6,4.6,63,0.00,CLR,SKC,0.00,WeatherDisplay:10.37,2013-04-15 11:19:00,
2013-04-15 07:24:00,59.0,46.0,28.89,NE,45,8.1,8.1,62,0.00,CLR,SKC,0.00,WeatherDisplay:10.37,2013-04-15 11:24:00,
2013-04-15 07:29:00,59.0,46.4,28.90,East,90,4.6,4.6,63,0.00,CLR,SKC,0.00,WeatherDisplay:10.37,2013-04-15 11:29:00,
2013-04-15 07:34:00,59.2,46.6,28.90,East,90,4.6,4.6,63,0.00,CLR,SKC,0.00,WeatherDisplay:10.37,2013-04-15 11:34:00,
2013-04-15 07:39:00,59.2,46.6,28.90,East,90,5.8,5.8,63,0.00,CLR,SKC,0.00,WeatherDisplay:10.37,2013-04-15 11:39:00,
2013-04-15 07:44:00,59.2,46.6,28.89,East,90,8.1,8.1,63,0.00,CLR,SKC,0.00,WeatherDisplay:10.37,2013-04-15 11:44:00,
2013-04-15 07:49:00,59.4,46.8,28.90,East,90,8.1,8.1,63,0.00,CLR,SKC,0.00,WeatherDisplay:10.37,2013-04-15 11:49:00,
2013-04-15 07:54:00,59.4,46.8,28.90,NE,45,10.4,10.4,63,0.00,CLR,SKC,0.00,WeatherDisplay:10.37,2013-04-15 11:54:00,
2013-04-15 07:59:00,59.4,46.8,28.90,East,90,11.5,11.5,63,0.00,CLR,SKC,0.00,WeatherDisplay:10.37,2013-04-15 11:59:00,
2013-04-15 08:04:00,59.4,47.2,28.90,East,90,8.1,8.1,64,0.00,CLR,SKC,0.00,WeatherDisplay:10.37,2013-04-15 12:04:00,
2013-04-15 08:09:00,59.5,47.3,28.90,East,90,8.1,8.1,64,0.00,CLR,SKC,0.00,WeatherDisplay:10.37,2013-04-15 12:09:00,
2013-04-15 08:14:00,59.7,47.1,28.90,East,90,10.4,10.4,63,0.00,CLR,SKC,0.00,WeatherDisplay:10.37,2013-04-15 12:14:00,
2013-04-15 08:19:00,59.9,47.7,28.90,ENE,68,8.1,8.1,64,0.00,CLR,SKC,0.00,WeatherDisplay:10.37,2013-04-15 12:19:00,
2013-04-15 08:24:00,60.1,47.9,28.90,NE,45,9.2,9.2,64,0.00,CLR,SKC,0.00,WeatherDisplay:10.37,2013-04-15 12:24:00,
2013-04-15 08:29:00,60.4,48.2,28.91,NE,45,8.1,8.1,64,0.00,CLR,SKC,0.00,WeatherDisplay:10.37,2013-04-15 12:29:00,
2013-04-15 08:34:00,60.6,48.4,28.91,ESE,112,13.8,13.8,64,0.00,CLR,SKC,0.00,WeatherDisplay:10.37,2013-04-15 12:34:00,
2013-04-15 08:40:00,60.8,48.5,28.92,East,90,9.2,9.2,64,0.00,CLR,SKC,0.00,WeatherDisplay:10.37,2013-04-15 12:40:00,
2013-04-15 08:45:00,61.0,49.1,28.91,East,90,10.4,10.4,65,0.00,CLR,SKC,0.00,WeatherDisplay:10.37,2013-04-15 12:45:00,
2013-04-15 08:50:00,61.3,49.5,28.91,East,90,6.9,6.9,65,0.00,CLR,SKC,0.00,WeatherDisplay:10.37,2013-04-15 12:50:00,
2013-04-15 08:55:00,61.5,49.6,28.91,SE,135,3.5,4.5,65,0.00,CLR,SKC,0.00,WeatherDisplay:10.37,2013-04-15 12:55:00,
2013-04-15 09:00:00,61.7,49.4,28.91,East,90,4.6,4.6,64,0.00,CLR,SKC,0.00,WeatherDisplay:10.37,2013-04-15 13:00:00,
2013-04-15 09:05:00,62.1,49.7,28.91,East,90,8.1,8.1,64,0.00,CLR,SKC,0.00,WeatherDisplay:10.37,2013-04-15 13:05:00,
2013-04-15 09:10:00,61.9,49.1,28.91,East,90,15.0,15.0,63,0.00,CLR,SKC,0.00,WeatherDisplay:10.37,2013-04-15 13:10:00,
2013-04-15 09:15:00,61.9,49.6,28.91,East,90,8.1,8.1,64,0.00,CLR,SKC,0.00,WeatherDisplay:10.37,2013-04-15 13:15:00,
2013-04-15 09:20:00,62.2,49.9,28.91,East,90,10.4,10.4,64,0.00,CLR,SKC,0.00,WeatherDisplay:10.37,2013-04-15 13:20:00,
2013-04-15 09:25:00,62.4,50.1,28.90,NE,45,10.4,10.4,64,0.00,CLR,SKC,0.00,WeatherDisplay:10.37,2013-04-15 13:25:00,
2013-04-15 09:30:00,62.4,50.1,28.90,East,90,8.1,8.1,64,0.00,CLR,SKC,0.00,WeatherDisplay:10.37,2013-04-15 13:30:00,
2013-04-15 09:35:00,62.6,50.2,28.90,NE,45,15.0,15.0,64,0.00,CLR,SKC,0.00,WeatherDisplay:10.37,2013-04-15 13:35:00,
2013-04-15 09:40:00,62.4,49.7,28.89,ENE,68,12.7,12.7,63,0.00,CLR,SKC,0.00,WeatherDisplay:10.37,2013-04-15 13:40:00,
2013-04-15 09:45:00,62.2,49.9,28.90,NW,315,12.7,12.7,64,0.00,CLR,SKC,0.00,WeatherDisplay:10.37,2013-04-15 13:45:00,
2013-04-15 09:50:00,62.4,50.1,28.90,SE,135,11.5,11.5,64,0.00,CLR,SKC,0.00,WeatherDisplay:10.37,2013-04-15 13:50:00,
2013-04-15 09:55:00,62.2,49.9,28.90,East,90,13.8,13.8,64,0.00,CLR,SKC,0.00,WeatherDisplay:10.37,2013-04-15 13:55:00,
2013-04-15 10:00:00,62.4,50.1,28.90,NE,45,10.4,10.4,64,0.00,CLR,SKC,0.00,WeatherDisplay:10.37,2013-04-15 14:00:00,
2013-04-15 10:05:00,62.6,50.2,28.90,NE,45,12.7,12.7,64,0.00,CLR,SKC,0.00,WeatherDisplay:10.37,2013-04-15 14:05:00,
2013-04-15 10:10:00,62.8,50.4,28.90,NE,45,10.4,10.4,64,0.00,CLR,SKC,0.00,WeatherDisplay:10.37,2013-04-15 14:10:00,
2013-04-15 10:15:00,62.8,50.0,28.90,East,90,13.8,13.8,63,0.00,CLR,SKC,0.00,WeatherDisplay:10.37,2013-04-15 14:15:00,
2013-04-15 10:20:00,63.0,50.2,28.90,NE,45,11.5,11.5,63,0.00,CLR,SKC,0.00,WeatherDisplay:10.37,2013-04-15 14:20:00,
2013-04-15 10:25:00,63.0,50.2,28.90,East,90,11.5,11.5,63,0.00,CLR,SKC,0.00,WeatherDisplay:10.37,2013-04-15 14:25:00,
2013-04-15 10:30:00,63.5,50.7,28.90,East,90,12.7,12.7,63,0.00,CLR,SKC,0.00,WeatherDisplay:10.37,2013-04-15 14:30:00,
2013-04-15 10:35:00,63.7,50.4,28.90,NE,45,5.8,5.8,62,0.00,CLR,SKC,0.00,WeatherDisplay:10.37,2013-04-15 14:35:00,
2013-04-15 10:40:00,63.9,50.6,28.90,East,90,5.8,5.8,62,0.00,CLR,SKC,0.00,WeatherDisplay:10.37,2013-04-15 14:40:00,
2013-04-15 10:45:00,63.5,50.7,28.90,SE,135,8.1,8.1,63,0.00,CLR,SKC,0.00,WeatherDisplay:10.37,2013-04-15 14:45:00,
2013-04-15 10:50:00,63.5,50.2,28.90,NE,45,10.4,10.4,62,0.00,CLR,SKC,0.00,WeatherDisplay:10.37,2013-04-15 14:50:00,
2013-04-15 10:55:00,64.2,50.9,28.90,NE,45,8.1,8.1,62,0.00,CLR,SKC,0.00,WeatherDisplay:10.37,2013-04-15 14:55:00,
2013-04-15 11:00:00,64.8,51.0,28.90,East,90,12.7,12.7,61,0.00,CLR,SKC,0.00,WeatherDisplay:10.37,2013-04-15 15:00:00,
2013-04-15 11:05:00,64.4,51.1,28.90,NE,45,10.4,10.4,62,0.00,CLR,SKC,0.00,WeatherDisplay:10.37,2013-04-15 15:05:00,
2013-04-15 11:10:00,64.8,51.0,28.90,East,90,8.1,8.1,61,0.00,CLR,SKC,0.00,WeatherDisplay:10.37,2013-04-15 15:10:00,
2013-04-15 11:15:00,66.2,52.3,28.90,East,90,11.5,11.5,61,0.00,CLR,SKC,0.00,WeatherDisplay:10.37,2013-04-15 15:15:00,
2013-04-15 11:20:00,67.1,53.6,28.90,East,90,15.0,15.0,62,0.00,CLR,SKC,0.00,WeatherDisplay:10.37,2013-04-15 15:20:00,
2013-04-15 11:25:00,67.6,52.3,28.90,East,90,13.8,13.8,58,0.00,CLR,SKC,0.00,WeatherDisplay:10.37,2013-04-15 15:25:00,
2013-04-15 11:30:00,67.8,53.4,28.90,ESE,112,13.8,13.8,60,0.00,CLR,SKC,0.00,WeatherDisplay:10.37,2013-04-15 15:30:00,
2013-04-15 11:36:00,68.4,53.5,28.90,NE,45,13.8,13.8,59,0.00,CLR,SKC,0.00,WeatherDisplay:10.37,2013-04-15 15:36:00,
2013-04-15 11:42:00,67.6,52.8,28.89,NE,45,13.8,13.8,59,0.00,CLR,SKC,0.00,WeatherDisplay:10.37,2013-04-15 15:42:00,
2013-04-15 11:47:00,67.1,52.3,28.90,East,90,19.6,19.6,59,0.00,CLR,SKC,0.00,WeatherDisplay:10.37,2013-04-15 15:47:00,
2013-04-15 11:52:00,65.7,51.8,28.89,East,90,11.5,11.5,61,0.00,CLR,SKC,0.00,WeatherDisplay:10.37,2013-04-15 15:52:00,
2013-04-15 11:57:00,65.7,52.3,28.89,East,90,13.8,13.8,62,0.00,CLR,SKC,0.00,WeatherDisplay:10.37,2013-04-15 15:57:00,
2013-04-15 12:02:00,65.3,52.4,28.90,SE,135,10.4,10.4,63,0.00,CLR,SKC,0.00,WeatherDisplay:10.37,2013-04-15 16:02:00,
2013-04-15 12:07:00,64.6,51.7,28.90,ESE,112,12.7,12.7,63,0.00,CLR,SKC,0.00,WeatherDisplay:10.37,2013-04-15 16:07:00,
2013-04-15 12:12:00,64.6,51.3,28.90,East,90,15.0,15.0,62,0.00,CLR,SKC,0.00,WeatherDisplay:10.37,2013-04-15 16:12:00,
2013-04-15 12:17:00,64.9,51.6,28.90,SE,135,6.9,7.6,62,0.00,CLR,SKC,0.00,WeatherDisplay:10.37,2013-04-15 16:17:00,
2013-04-15 12:23:00,64.6,52.1,28.90,SE,135,12.7,12.7,64,0.00,CLR,SKC,0.00,WeatherDisplay:10.37,2013-04-15 16:23:00,
2013-04-15 12:28:00,64.2,51.8,28.90,East,90,11.5,11.5,64,0.00,CLR,SKC,0.00,WeatherDisplay:10.37,2013-04-15 16:28:00,
2013-04-15 12:34:00,63.9,51.9,28.90,East,90,8.1,8.1,65,0.00,CLR,SKC,0.00,WeatherDisplay:10.37,2013-04-15 16:34:00,
2013-04-15 12:39:00,63.5,51.5,28.91,East,90,12.7,12.7,65,0.00,CLR,SKC,0.00,WeatherDisplay:10.37,2013-04-15 16:39:00,
2013-04-15 12:44:00,63.1,51.6,28.91,SE,135,11.5,11.5,66,0.00,CLR,SKC,0.00,WeatherDisplay:10.37,2013-04-15 16:44:00,
2013-04-15 12:49:00,63.1,52.0,28.91,East,90,11.5,11.5,67,0.00,CLR,SKC,0.00,WeatherDisplay:10.37,2013-04-15 16:49:00,
2013-04-15 12:54:00,63.0,51.8,28.91,East,90,15.0,15.0,67,0.00,CLR,SKC,0.00,WeatherDisplay:10.37,2013-04-15 16:54:00,
2013-04-15 12:59:00,62.4,51.7,28.92,East,90,15.0,15.0,68,0.00,CLR,SKC,0.00,WeatherDisplay:10.37,2013-04-15 16:59:00,
2013-04-15 13:04:00,62.1,51.8,28.92,East,90,11.5,11.5,69,0.00,CLR,SKC,0.00,WeatherDisplay:10.37,2013-04-15 17:04:00,
2013-04-15 13:09:00,62.1,51.4,28.92,SE,135,19.6,19.6,68,0.00,CLR,SKC,0.00,WeatherDisplay:10.37,2013-04-15 17:09:00,
2013-04-15 13:14:00,62.1,51.8,28.93,East,90,10.4,10.4,69,0.00,CLR,SKC,0.00,WeatherDisplay:10.37,2013-04-15 17:14:00,
2013-04-15 13:19:00,61.5,51.6,28.93,South,180,8.1,8.1,70,0.00,CLR,SKC,0.00,WeatherDisplay:10.37,2013-04-15 17:19:00,
2013-04-15 13:21:00,61.5,52.0,28.93,SE,135,15.0,15.0,71,0.00,CLR,SKC,0.00,WeatherDisplay:10.37,2013-04-15 17:21:00,
2013-04-15 13:23:00,61.2,51.7,28.92,SE,135,18.4,18.4,71,0.00,CLR,SKC,0.00,WeatherDisplay:10.37,2013-04-15 17:23:00,
2013-04-15 13:25:00,61.2,52.1,28.92,SE,135,13.8,13.8,72,0.00,CLR,SKC,0.00,WeatherDisplay:10.37,2013-04-15 17:25:00,
2013-04-15 13:30:00,61.2,52.1,28.92,South,180,12.7,12.7,72,0.00,CLR,SKC,0.00,WeatherDisplay:10.37,2013-04-15 17:30:00,
2013-04-15 13:35:00,61.0,53.0,28.92,NE,45,13.8,13.8,75,0.00,CLR,SKC,0.00,WeatherDisplay:10.37,2013-04-15 17:35:00,
2013-04-15 13:40:00,60.8,52.8,28.92,East,90,12.7,12.7,75,0.00,CLR,SKC,0.00,WeatherDisplay:10.37,2013-04-15 17:40:00,
2013-04-15 13:45:00,60.8,53.2,28.92,SE,135,12.7,12.7,76,0.00,CLR,SKC,0.00,WeatherDisplay:10.37,2013-04-15 17:45:00,
2013-04-15 13:50:00,60.6,53.4,28.92,SE,135,8.1,8.1,77,0.00,CLR,SKC,0.00,WeatherDisplay:10.37,2013-04-15 17:50:00,
2013-04-15 13:55:00,61.0,53.0,28.92,NE,45,11.5,11.5,75,0.00,CLR,SKC,0.00,WeatherDisplay:10.37,2013-04-15 17:55:00,
2013-04-15 14:00:00,61.5,53.5,28.91,East,90,8.1,8.1,75,0.00,CLR,SKC,0.00,WeatherDisplay:10.37,2013-04-15 18:00:00,
2013-04-15 14:05:00,61.7,53.3,28.91,East,90,5.8,5.8,74,0.00,CLR,SKC,0.00,WeatherDisplay:10.37,2013-04-15 18:05:00,
2013-04-15 14:10:00,61.5,53.2,28.91,SE,135,8.1,8.1,74,0.00,CLR,SKC,0.00,WeatherDisplay:10.37,2013-04-15 18:10:00,
2013-04-15 14:16:00,61.5,52.8,28.92,SE,135,12.7,12.7,73,0.00,CLR,SKC,0.00,WeatherDisplay:10.37,2013-04-15 18:16:00,
2013-04-15 14:21:00,61.5,52.8,28.92,East,90,12.7,12.7,73,0.00,CLR,SKC,0.00,WeatherDisplay:10.37,2013-04-15 18:21:00,
2013-04-15 14:26:00,61.5,52.8,28.92,NE,45,10.4,10.4,73,0.00,CLR,SKC,0.00,WeatherDisplay:10.37,2013-04-15 18:26:00,
2013-04-15 14:29:00,61.5,53.2,28.92,East,90,3.5,3.5,74,0.00,CLR,SKC,0.00,WeatherDisplay:10.37,2013-04-15 18:29:00,
2013-04-15 14:30:00,61.7,53.3,28.92,East,90,5.8,5.8,74,0.00,CLR,SKC,0.00,WeatherDisplay:10.37,2013-04-15 18:30:00,
2013-04-15 14:31:00,61.7,53.0,28.92,East,90,8.1,8.1,73,0.00,CLR,SKC,0.00,WeatherDisplay:10.37,2013-04-15 18:31:00,
2013-04-15 14:36:00,61.5,52.4,28.92,NE,45,12.7,12.7,72,0.00,CLR,SKC,0.00,WeatherDisplay:10.37,2013-04-15 18:36:00,
2013-04-15 14:37:00,61.5,52.8,28.92,SE,135,12.7,12.7,73,0.00,CLR,SKC,0.00,WeatherDisplay:10.37,2013-04-15 18:37:00,
2013-04-15 14:42:00,61.2,52.4,28.92,East,90,10.4,10.4,73,0.00,CLR,SKC,0.00,WeatherDisplay:10.37,2013-04-15 18:42:00,
2013-04-15 14:47:00,61.2,52.4,28.92,East,90,8.1,8.1,73,0.00,CLR,SKC,0.00,WeatherDisplay:10.37,2013-04-15 18:47:00,
2013-04-15 14:52:00,61.5,53.2,28.92,SE,135,3.5,3.5,74,0.00,CLR,SKC,0.00,WeatherDisplay:10.37,2013-04-15 18:52:00,
2013-04-15 14:57:00,61.5,52.8,28.92,SE,135,8.1,8.1,73,0.00,CLR,SKC,0.00,WeatherDisplay:10.37,2013-04-15 18:57:00,
2013-04-15 15:02:00,61.7,52.6,28.92,East,90,13.8,13.8,72,0.00,CLR,SKC,0.00,WeatherDisplay:10.37,2013-04-15 19:02:00,
2013-04-15 15:07:00,62.1,53.3,28.92,NE,45,10.4,10.4,73,0.00,CLR,SKC,0.00,WeatherDisplay:10.37,2013-04-15 19:07:00,
2013-04-15 15:12:00,61.9,52.4,28.92,SE,135,12.7,12.7,71,0.00,CLR,SKC,0.00,WeatherDisplay:10.37,2013-04-15 19:12:00,
2013-04-15 15:17:00,62.1,52.9,28.92,SE,135,9.8,9.8,72,0.00,CLR,SKC,0.00,WeatherDisplay:10.37,2013-04-15 19:17:00,
2013-04-15 15:22:00,61.9,52.8,28.92,NE,45,10.4,10.4,72,0.00,CLR,SKC,0.00,WeatherDisplay:10.37,2013-04-15 19:22:00,
2013-04-15 15:27:00,61.9,52.8,28.92,East,90,6.9,6.9,72,0.00,CLR,SKC,0.00,WeatherDisplay:10.37,2013-04-15 19:27:00,
2013-04-15 15:32:00,61.7,53.0,28.92,East,90,8.1,8.1,73,0.00,CLR,SKC,0.00,WeatherDisplay:10.37,2013-04-15 19:32:00,
2013-04-15 15:37:00,61.9,52.8,28.92,SE,135,5.8,5.8,72,0.00,CLR,SKC,0.00,WeatherDisplay:10.37,2013-04-15 19:37:00,
2013-04-15 15:42:00,61.7,52.6,28.92,East,90,11.5,11.5,72,0.00,CLR,SKC,0.00,WeatherDisplay:10.37,2013-04-15 19:42:00,
2013-04-15 15:47:00,61.9,52.8,28.92,East,90,6.9,6.9,72,0.00,CLR,SKC,0.00,WeatherDisplay:10.37,2013-04-15 19:47:00,
2013-04-15 15:52:00,61.9,52.8,28.92,East,90,9.2,9.2,72,0.00,CLR,SKC,0.00,WeatherDisplay:10.37,2013-04-15 19:52:00,
2013-04-15 15:57:00,61.9,52.8,28.91,SE,135,9.2,9.2,72,0.00,CLR,SKC,0.00,WeatherDisplay:10.37,2013-04-15 19:57:00,
2013-04-15 15:58:00,61.9,52.8,28.91,East,90,9.2,9.2,72,0.00,CLR,SKC,0.00,WeatherDisplay:10.37,2013-04-15 19:58:00,
2013-04-15 16:02:00,62.2,52.7,28.91,East,90,9.2,9.2,71,0.00,CLR,SKC,0.00,WeatherDisplay:10.37,2013-04-15 20:02:00,
2013-04-15 16:03:00,62.2,52.7,28.91,East,90,9.2,9.2,71,0.00,CLR,SKC,0.00,WeatherDisplay:10.37,2013-04-15 20:03:00,
2013-04-15 16:04:00,62.2,52.7,28.91,East,90,9.2,9.2,71,0.00,CLR,SKC,0.00,WeatherDisplay:10.37,2013-04-15 20:04:00,
2013-04-15 16:09:00,63.0,53.0,28.90,SE,135,10.4,10.4,70,0.00,CLR,SKC,0.00,WeatherDisplay:10.37,2013-04-15 20:09:00,
2013-04-15 16:12:00,63.3,53.4,28.91,East,90,8.1,8.1,70,0.00,CLR,SKC,0.00,WeatherDisplay:10.37,2013-04-15 20:12:00,
2013-04-15 16:17:00,64.0,54.1,28.90,NE,45,8.1,8.1,70,0.00,CLR,SKC,0.00,WeatherDisplay:10.37,2013-04-15 20:17:00,
2013-04-15 16:22:00,63.9,53.5,28.90,East,90,11.5,11.5,69,0.00,CLR,SKC,0.00,WeatherDisplay:10.37,2013-04-15 20:22:00,
2013-04-15 16:27:00,63.7,53.3,28.90,ENE,68,12.7,12.7,69,0.00,CLR,SKC,0.00,WeatherDisplay:10.37,2013-04-15 20:27:00,
2013-04-15 16:32:00,63.9,53.5,28.90,NE,45,9.2,9.2,69,0.00,CLR,SKC,0.00,WeatherDisplay:10.37,2013-04-15 20:32:00,
2013-04-15 16:37:00,63.7,53.3,28.90,SE,135,13.8,13.8,69,0.00,CLR,SKC,0.00,WeatherDisplay:10.37,2013-04-15 20:37:00,
2013-04-15 16:42:00,64.0,53.7,28.90,East,90,9.8,9.8,69,0.00,CLR,SKC,0.00,WeatherDisplay:10.37,2013-04-15 20:42:00,
2013-04-15 16:47:00,64.0,53.7,28.90,NE,45,10.4,10.4,69,0.00,CLR,SKC,0.00,WeatherDisplay:10.37,2013-04-15 20:47:00,
2013-04-15 16:52:00,63.9,53.5,28.90,East,90,12.7,12.7,69,0.00,CLR,SKC,0.00,WeatherDisplay:10.37,2013-04-15 20:52:00,
2013-04-15 16:57:00,64.0,53.7,28.89,ENE,68,10.4,10.4,69,0.00,CLR,SKC,0.00,WeatherDisplay:10.37,2013-04-15 20:57:00,
2013-04-15 17:02:00,64.4,54.0,28.90,East,90,9.2,9.2,69,0.00,CLR,SKC,0.00,WeatherDisplay:10.37,2013-04-15 21:02:00,
2013-04-15 17:07:00,64.9,54.1,28.90,SE,135,12.7,12.7,68,0.00,CLR,SKC,0.00,WeatherDisplay:10.37,2013-04-15 21:07:00,
2013-04-15 17:12:00,65.5,54.2,28.90,SE,135,10.4,10.4,67,0.00,CLR,SKC,0.00,WeatherDisplay:10.37,2013-04-15 21:12:00,
2013-04-15 17:17:00,65.7,54.4,28.90,East,90,11.5,11.5,67,0.00,CLR,SKC,0.00,WeatherDisplay:10.37,2013-04-15 21:17:00,
2013-04-15 17:22:00,65.5,54.2,28.90,East,90,8.1,8.1,67,0.00,CLR,SKC,0.00,WeatherDisplay:10.37,2013-04-15 21:22:00,
2013-04-15 17:27:00,65.1,53.9,28.90,East,90,12.7,12.7,67,0.00,CLR,SKC,0.00,WeatherDisplay:10.37,2013-04-15 21:27:00,
2013-04-15 17:32:00,64.6,53.8,28.90,NE,45,8.1,8.1,68,0.00,CLR,SKC,0.00,WeatherDisplay:10.37,2013-04-15 21:32:00,
2013-04-15 17:37:00,64.6,53.8,28.90,East,90,8.1,8.1,68,0.00,CLR,SKC,0.00,WeatherDisplay:10.37,2013-04-15 21:37:00,
2013-04-15 17:42:00,64.4,53.6,28.90,SE,135,8.1,8.1,68,0.00,CLR,SKC,0.00,WeatherDisplay:10.37,2013-04-15 21:42:00,
2013-04-15 17:47:00,64.6,53.8,28.90,South,180,10.4,10.4,68,0.00,CLR,SKC,0.00,WeatherDisplay:10.37,2013-04-15 21:47:00,
2013-04-15 17:52:00,64.9,54.1,28.90,East,90,12.7,12.7,68,0.00,CLR,SKC,0.00,WeatherDisplay:10.37,2013-04-15 21:52:00,
2013-04-15 17:57:00,64.9,53.7,28.90,SE,135,13.8,13.8,67,0.00,CLR,SKC,0.00,WeatherDisplay:10.37,2013-04-15 21:57:00,
2013-04-15 18:02:00,64.6,53.4,28.90,SE,135,10.4,10.4,67,0.00,CLR,SKC,0.00,WeatherDisplay:10.37,2013-04-15 22:02:00,
2013-04-15 18:07:00,64.4,53.6,28.90,East,90,8.1,8.1,68,0.00,CLR,SKC,0.00,WeatherDisplay:10.37,2013-04-15 22:07:00,
2013-04-15 18:12:00,64.4,53.2,28.90,SE,135,12.7,12.7,67,0.00,CLR,SKC,0.00,WeatherDisplay:10.37,2013-04-15 22:12:00,
2013-04-15 18:17:00,64.4,53.2,28.90,SE,135,12.7,12.7,67,0.00,CLR,SKC,0.00,WeatherDisplay:10.37,2013-04-15 22:17:00,
2013-04-15 18:22:00,64.4,53.2,28.90,NE,45,17.3,17.3,67,0.00,CLR,SKC,0.00,WeatherDisplay:10.37,2013-04-15 22:22:00,
2013-04-15 18:27:00,64.2,53.0,28.90,East,90,16.1,16.1,67,0.00,CLR,SKC,0.00,WeatherDisplay:10.37,2013-04-15 22:27:00,
2013-04-15 18:32:00,64.0,52.4,28.90,SE,135,15.0,15.0,66,0.00,CLR,SKC,0.00,WeatherDisplay:10.37,2013-04-15 22:32:00,
2013-04-15 18:37:00,63.7,52.5,28.90,NE,45,15.0,15.0,67,0.00,CLR,SKC,0.00,WeatherDisplay:10.37,2013-04-15 22:37:00,
2013-04-15 18:42:00,63.5,52.7,28.90,East,90,10.4,10.4,68,0.00,CLR,SKC,0.00,WeatherDisplay:10.37,2013-04-15 22:42:00,
2013-04-15 18:47:00,63.5,52.3,28.91,East,90,10.4,10.4,67,0.00,CLR,SKC,0.00,WeatherDisplay:10.37,2013-04-15 22:47:00,
2013-04-15 18:52:00,63.3,52.2,28.90,East,90,10.4,10.4,67,0.00,CLR,SKC,0.00,WeatherDisplay:10.37,2013-04-15 22:52:00,
2013-04-15 18:57:00,63.1,52.4,28.90,East,90,9.2,9.2,68,0.00,CLR,SKC,0.00,WeatherDisplay:10.37,2013-04-15 22:57:00,
2013-04-15 19:02:00,63.1,52.4,28.90,East,90,10.4,10.4,68,0.00,CLR,SKC,0.00,WeatherDisplay:10.37,2013-04-15 23:02:00,
2013-04-15 19:07:00,63.0,52.2,28.90,East,90,9.2,9.2,68,0.00,CLR,SKC,0.00,WeatherDisplay:10.37,2013-04-15 23:07:00,
2013-04-15 19:12:00,63.0,52.2,28.90,East,90,5.8,5.8,68,0.00,CLR,SKC,0.00,WeatherDisplay:10.37,2013-04-15 23:12:00,
2013-04-15 19:17:00,63.0,52.2,28.90,East,90,10.4,10.4,68,0.00,CLR,SKC,0.00,WeatherDisplay:10.37,2013-04-15 23:17:00,
2013-04-15 19:22:00,62.8,52.1,28.90,NE,45,10.4,10.4,68,0.00,CLR,SKC,0.00,WeatherDisplay:10.37,2013-04-15 23:22:00,
2013-04-15 19:27:00,62.8,52.1,28.90,East,90,8.1,8.1,68,0.00,CLR,SKC,0.00,WeatherDisplay:10.37,2013-04-15 23:27:00,
2013-04-15 19:32:00,62.8,52.1,28.90,NE,45,8.1,8.1,68,0.00,CLR,SKC,0.00,WeatherDisplay:10.37,2013-04-15 23:32:00,
2013-04-15 19:37:00,62.8,52.1,28.89,East,90,8.1,8.1,68,0.00,CLR,SKC,0.00,WeatherDisplay:10.37,2013-04-15 23:37:00,
2013-04-15 19:42:00,62.6,51.9,28.89,East,90,15.0,15.0,68,0.00,CLR,SKC,0.00,WeatherDisplay:10.37,2013-04-15 23:42:00,
2013-04-15 19:47:00,62.4,51.7,28.89,East,90,10.4,10.4,68,0.00,CLR,SKC,0.00,WeatherDisplay:10.37,2013-04-15 23:47:00,
2013-04-15 19:52:00,62.1,51.8,28.90,East,90,9.2,9.2,69,0.00,CLR,SKC,0.00,WeatherDisplay:10.37,2013-04-15 23:52:00,
2013-04-15 19:57:00,61.9,51.6,28.90,NE,45,10.4,10.4,69,0.00,CLR,SKC,0.00,WeatherDisplay:10.37,2013-04-15 23:57:00,
2013-04-15 20:02:00,61.9,51.6,28.90,East,90,5.8,5.8,69,0.00,CLR,SKC,0.00,WeatherDisplay:10.37,2013-04-16 00:02:00,
2013-04-15 20:07:00,61.5,51.6,28.90,East,90,4.6,4.6,70,0.00,CLR,SKC,0.00,WeatherDisplay:10.37,2013-04-16 00:07:00,
2013-04-15 20:12:00,61.3,51.9,28.90,East,90,4.6,4.6,71,0.00,CLR,SKC,0.00,WeatherDisplay:10.37,2013-04-16 00:12:00,
2013-04-15 20:17:00,61.2,51.7,28.91,East,90,10.4,10.4,71,0.00,CLR,SKC,0.00,WeatherDisplay:10.37,2013-04-16 00:17:00,
2013-04-15 20:22:00,61.2,51.3,28.90,East,90,6.9,6.9,70,0.00,CLR,SKC,0.00,WeatherDisplay:10.37,2013-04-16 00:22:00,
2013-04-15 20:27:00,61.3,51.5,28.90,East,90,13.8,13.8,70,0.00,CLR,SKC,0.00,WeatherDisplay:10.37,2013-04-16 00:27:00,
2013-04-15 20:32:00,61.2,51.3,28.91,East,90,13.8,13.8,70,0.00,CLR,SKC,0.00,WeatherDisplay:10.37,2013-04-16 00:32:00,
2013-04-15 20:37:00,61.3,51.5,28.91,East,90,15.0,15.0,70,0.00,CLR,SKC,0.00,WeatherDisplay:10.37,2013-04-16 00:37:00,
2013-04-15 20:42:00,61.3,51.5,28.91,East,90,9.2,9.2,70,0.00,CLR,SKC,0.00,WeatherDisplay:10.37,2013-04-16 00:42:00,
2013-04-15 20:47:00,61.2,51.7,28.92,NE,45,8.1,8.1,71,0.00,CLR,SKC,0.00,WeatherDisplay:10.37,2013-04-16 00:47:00,
2013-04-15 20:52:00,60.8,51.3,28.92,SE,135,6.9,6.9,71,0.00,CLR,SKC,0.00,WeatherDisplay:10.37,2013-04-16 00:52:00,
2013-04-15 20:57:00,60.6,51.5,28.92,East,90,6.9,6.9,72,0.00,CLR,SKC,0.00,WeatherDisplay:10.37,2013-04-16 00:57:00,
2013-04-15 21:02:00,60.4,51.4,28.91,East,90,8.1,8.1,72,0.00,CLR,SKC,0.00,WeatherDisplay:10.37,2013-04-16 01:02:00,
2013-04-15 21:07:00,60.4,51.4,28.92,East,90,4.6,4.6,72,0.00,CLR,SKC,0.00,WeatherDisplay:10.37,2013-04-16 01:07:00,
2013-04-15 21:12:00,60.4,51.4,28.92,East,90,8.1,8.1,72,0.00,CLR,SKC,0.00,WeatherDisplay:10.37,2013-04-16 01:12:00,
2013-04-15 21:17:00,60.8,51.7,28.92,East,90,8.1,8.1,72,0.00,CLR,SKC,0.00,WeatherDisplay:10.37,2013-04-16 01:17:00,
2013-04-15 21:22:00,60.3,51.6,28.92,NE,45,5.8,5.8,73,0.00,CLR,SKC,0.00,WeatherDisplay:10.37,2013-04-16 01:22:00,
2013-04-15 21:27:00,60.1,51.4,28.92,East,90,8.1,8.1,73,0.00,CLR,SKC,0.00,WeatherDisplay:10.37,2013-04-16 01:27:00,
2013-04-15 22:09:00,59.9,51.6,28.94,East,90,4.6,4.6,74,0.00,CLR,SKC,0.00,WeatherDisplay:10.37,2013-04-16 02:09:00,
2013-04-15 22:14:00,59.5,51.6,28.93,NE,45,5.8,5.8,75,0.00,CLR,SKC,0.00,WeatherDisplay:10.37,2013-04-16 02:14:00,
2013-04-15 22:19:00,59.7,51.8,28.93,East,90,15.0,15.0,75,0.00,CLR,SKC,0.00,WeatherDisplay:10.37,2013-04-16 02:19:00,
2013-04-15 22:24:00,59.7,51.8,28.93,East,90,15.0,15.0,75,0.00,CLR,SKC,0.00,WeatherDisplay:10.37,2013-04-16 02:24:00,
2013-04-15 22:29:00,59.5,52.0,28.93,East,90,10.4,10.4,76,0.00,CLR,SKC,0.00,WeatherDisplay:10.37,2013-04-16 02:29:00,
2013-04-15 22:34:00,59.5,52.0,28.94,East,90,8.1,8.1,76,0.00,CLR,SKC,0.00,WeatherDisplay:10.37,2013-04-16 02:34:00,
2013-04-15 22:39:00,59.5,52.0,28.94,SE,135,8.1,8.1,76,0.00,CLR,SKC,0.00,WeatherDisplay:10.37,2013-04-16 02:39:00,
2013-04-15 22:44:00,59.5,52.0,28.93,East,90,11.5,11.5,76,0.00,CLR,SKC,0.00,WeatherDisplay:10.37,2013-04-16 02:44:00,
2013-04-15 22:49:00,59.5,52.0,28.93,East,90,12.1,12.1,76,0.00,CLR,SKC,0.00,WeatherDisplay:10.37,2013-04-16 02:49:00,
2013-04-15 22:54:00,59.5,52.0,28.93,East,90,10.4,10.4,76,0.00,CLR,SKC,0.00,WeatherDisplay:10.37,2013-04-16 02:54:00,
2013-04-15 22:59:00,59.4,52.1,28.92,East,90,5.8,5.8,77,0.00,CLR,SKC,0.00,WeatherDisplay:10.37,2013-04-16 02:59:00,
2013-04-15 23:04:00,59.2,52.0,28.93,East,90,8.1,8.1,77,0.00,CLR,SKC,0.00,WeatherDisplay:10.37,2013-04-16 03:04:00,
2013-04-15 23:09:00,59.0,52.1,28.93,NE,45,8.1,8.1,78,0.00,CLR,SKC,0.00,WeatherDisplay:10.37,2013-04-16 03:09:00,
2013-04-15 23:14:00,59.2,52.3,28.93,SE,135,12.7,12.7,78,0.00,CLR,SKC,0.00,WeatherDisplay:10.37,2013-04-16 03:14:00,
2013-04-15 23:19:00,59.0,52.1,28.93,NE,45,5.8,5.8,78,0.00,CLR,SKC,0.00,WeatherDisplay:10.37,2013-04-16 03:19:00,
2013-04-15 23:24:00,59.0,52.1,28.93,East,90,5.8,5.8,78,0.00,CLR,SKC,0.00,WeatherDisplay:10.37,2013-04-16 03:24:00,
2013-04-15 23:29:00,58.8,52.3,28.93,East,90,6.9,6.9,79,0.00,CLR,SKC,0.00,WeatherDisplay:10.37,2013-04-16 03:29:00,
2013-04-15 23:34:00,58.8,52.3,28.93,East,90,8.1,8.1,79,0.00,CLR,SKC,0.00,WeatherDisplay:10.37,2013-04-16 03:34:00,
2013-04-15 23:39:00,58.8,52.3,28.93,East,90,8.1,8.1,79,0.00,CLR,SKC,0.00,WeatherDisplay:10.37,2013-04-16 03:39:00,
2013-04-15 23:44:00,58.6,52.1,28.93,East,90,8.1,8.1,79,0.00,CLR,SKC,0.00,WeatherDisplay:10.37,2013-04-16 03:44:00,
2013-04-15 23:49:00,58.6,52.5,28.93,ESE,112,8.1,8.1,80,0.00,CLR,SKC,0.00,WeatherDisplay:10.37,2013-04-16 03:49:00,
2013-04-15 23:54:00,58.6,52.5,28.93,ESE,112,8.1,8.1,80,0.00,CLR,SKC,0.00,WeatherDisplay:10.37,2013-04-16 03:54:00,
2013-04-15 23:59:00,58.5,52.3,28.93,NE,45,4.6,4.6,80,0.00,CLR,SKC,0.00,WeatherDisplay:10.37,2013-04-16 03:59:00,